Regional Weather Roundup
Issued by NWS

Home | Current Version | Previous Version | Graphics & Text | Print | Product List | Glossary On
Versions: 1 2 3 4 5 6 7 8 9 10 11 12 13 14 15 16 17 18 19 20 21 22 23 24 25 26 27 28 29 30 31 32 33 34 35 36 37 38 39 40 41 42 43 44 45 46 47 48 49 50
860
ASUS43 KLOT 231704
RWRIL

ILLINOIS REGIONAL WEATHER ROUNDUP
NATIONAL WEATHER SERVICE CHICAGO/ROMEOVILLE IL
1200 PM CDT SUN JUL 23 2017

NOTE: "FAIR" INDICATES FEW OR NO CLOUDS BELOW 12,000 FEET WITH NO
SIGNIFICANT WEATHER AND/OR OBSTRUCTIONS TO VISIBILITY.

* THESE STATIONS ARE NOT UNDER NWS QUALITY CONTROL. THEY ALSO MAY NOT
  REPORT WEATHER SUCH AS PRECIPITATION OR FOG.

ILZ001-002-007-009-015-016-024-231800-
NORTHWEST ILLINOIS

CITY           SKY/WX    TMP DP  RH WIND       PRES   REMARKS
MOLINE         SUNNY     88  72  58 W10       29.84F HX  94
STERLING*      SUNNY     84  73  69 W13       29.84F HX  90
SAVANNA*       MOSUNNY   85  72  63 W7        29.83F HX  91
$$

ILZ003-004-008-010-011-017-018-231800-
NORTH CENTRAL ILLINOIS

CITY           SKY/WX    TMP DP  RH WIND       PRES   REMARKS
ROCKFORD       MOSUNNY   86  69  56 W9        29.84S HX  90
FREEPORT*      MOSUNNY   82  71  71 SW7       29.86S HX  86
ROCHELLE*      MOSUNNY   82  73  73 W9        29.85S HX  87
DE KALB*       SUNNY     83  70  63 NW8       29.84F HX  87
PERU*          SUNNY     83  71  68 W8        29.85S HX  87
$$

ILZ005-006-012>014-019>023-231800-
NORTHEAST ILLINOIS

CITY           SKY/WX    TMP DP  RH WIND       PRES   REMARKS
CHICAGO-OHARE  MOSUNNY   86  64  47 W13G18    29.80S HX  87
CHICAGO-MIDWAY MOSUNNY   88  66  48 NW12      29.80R HX  90
AURORA         SUNNY     84  73  69 NW6       29.83S HX  90
LANSING*       PTSUNNY   84  70  62 W5        29.81S HX  88
JOLIET*        MOSUNNY   86  73  63 NW6       29.82S HX  93
WAUKEGAN       MOSUNNY   85  68  56 NW6       29.80S HX  88
DUPAGE AIRPORT SUNNY     85  68  56 W9        29.81F HX  88
WHEELING       SUNNY     85  67  54 NW9       29.81F HX  87
MORRIS*        MOSUNNY   83  75  74 W10       29.81F HX  91
ROMEOVILLE*    SUNNY     84  69  59 NW7       29.82S HX  88
NORTHERLY ISL    N/A     81  73  76 CALM        N/A  HX  86
$$

LMZ740>746-231800-
SOUTHERN LAKE MICHIGAN

STATION/POSITION SKY/WX   TEMP    WIND        PRES    VSBY  WAVE
                          AIR SEA DIR/SP/G                  HT/PER
                          (F)     (DEG/KT/KT) (MB)    (MI)  (FT/S)
SOUTHERN BUOY              72 71  240/ 10/ 10 1008.8          0
WILMETTE HARBOR            77 75   90/  4/  4   N/A           1
HARRISON CRIB              79     100/  3/  3   N/A
BURNHAM HARBOR             80                   N/A
CALUMET HARBOR             80      50/  6/  7 1008.9R
BURNS HARBOR               78     340/  4/  5 1009.8S
MICHIGAN CITY              80     290/  2/  4   N/A
MICHIGAN CITY 6N           78 77  300/  2/  4   N/A           0
ST. JOSEPH                 75 76  280/  6/  8 1008.7          0
$$

ILZ025>027-034>036-040-047-049-050-058-095>099-231800-
WEST-CENTRAL ILLINOIS

CITY           SKY/WX    TMP DP  RH WIND       PRES   REMARKS
QUINCY         SUNNY     88  73  61 W7        29.89S HX  95
GALESBURG*     PTSUNNY   85  74  69 W8        29.88S HX  92
MACOMB*        MOSUNNY   85  74  69 W8        29.90S HX  93
JACKSONVILLE*  MOSUNNY   86  73  65 W8        29.89S HX  93
PITTSFIELD*    MOSUNNY   87  73  61 W3        29.91S HX  94
$$

ILZ028>032-037-038-041>044-048-051>054-059>061-231800-
CENTRAL ILLINOIS

CITY           SKY/WX    TMP DP  RH WIND       PRES   REMARKS
PONTIAC        MOSUNNY   84  78  82 W13       29.85S HX  94
BLOOMINGTON    MOSUNNY   86  72  62 NW14G23   29.87S HX  92
DECATUR        MOSUNNY   86  73  65 NW14G20   29.87S HX  93
PEORIA         MOSUNNY   87  74  64 NW9       29.86S HX  95
LACON*         SUNNY     85  73  67 NW6       29.85S HX  92
LINCOLN*       MOSUNNY   87  76  68 W6        29.87S HX  98
SPRINGFIELD    MOSUNNY   88  76  67 NW14      29.88S HX  99
TAYLORVILLE    CLOUDY    83  74  75 CALM      29.89S HX  90
$$

ILZ033-039-045-046-055>057-062-063-231800-
EAST-CENTRAL ILLINOIS

CITY           SKY/WX    TMP DP  RH WIND       PRES   REMARKS
CHAMPAIGN      MOSUNNY   85  74  69 NW12      29.85S HX  92
RANTOUL*       PTSUNNY   87  75  67 NW16G22   29.85S HX  96
MATTOON        MOSUNNY   80  71  74 SW10      29.88R HX  84
$$

ILZ079-100>102-231800-
SOUTHWEST ILLINOIS

CITY           SKY/WX    TMP DP  RH WIND       PRES   REMARKS
ALTON          PTSUNNY   79  70  73 SW9       29.93S HX  81
CAHOKIA*       CLOUDY    83  66  56 W8        29.92F HX  85
SPARTA*        CLOUDY    80  67  63 W5        29.94F HX  82
$$

ILZ064>066-069>071-074>076-080>082-084>086-088>090-092>094-231800-
SOUTH-CENTRAL ILLINOIS

CITY           SKY/WX    TMP DP  RH WIND       PRES   REMARKS
CARBONDALE     MOSUNNY   84  69  60 CALM      29.92R HX  88
CAIRO*         SUNNY     85  69  57 N5        29.90S HX  89
EFFINGHAM*     SUNNY     83  69  62 SW12      29.92S HX  86
MARION         PTSUNNY   84  68  58 N5        29.93R HX  87
MT. VERNON     CLOUDY    82  70  66 SW7       29.92S HX  86
CENTRALIA*     CLOUDY    80  72  77 W6        29.92S HX  83
SALEM*         CLOUDY    81  71  71 W10       29.93S HX  85
METROPOLIS*    SUNNY     86  72  62 E3        29.91S HX  92
$$

ILZ067-068-072-073-078-083-087-091-231800-
SOUTHEAST ILLINOIS

CITY           SKY/WX    TMP DP  RH WIND       PRES   REMARKS
LAWRENCEVILLE  CLOUDY    81  79  94 SW13      29.89S HX  90
FLORA*         CLOUDY    83  73  72 S10       29.92S HX  88
FAIRFIELD*     CLOUDY    80  71  74 SW6       29.91R HX  84
HARRISBURG*    SUNNY     85  70  60 CALM      29.91R HX  89
ROBINSON*      PTSUNNY   80  73  78 SW10G16   29.89S HX  85
CARMI*         CLOUDY    80  73  78 W6        29.91R HX  85
$$

ABBREVIATIONS USED IN REMARKS
   TC - TEMPERATURE IN CELSIUS
  WCI - WIND CHILL INDEX
   HX - HEAT INDEX
  VSB - VISIBILITY
$$





USA.gov is the U.S. government's official web portal to all federal, state and local government web resources and services.